Hourly Weather Holstovo

Today, 11 April, Sunday

Time Temperature Precipitation Wind Pressure Humidity
00:00 +9°C° 0 mm 2 mps 748 mmHg 72%
01:00 +9°C° 0 mm 2 mps 749 mmHg 73%
02:00 +8°C° 0 mm 3 mps 749 mmHg 73%
03:00 +8°C° 0 mm 3 mps 749 mmHg 74%
04:00 +8°C° 0 mm 3 mps 749 mmHg 75%
05:00 +7°C° 0 mm 3 mps 749 mmHg 75%
06:00 +8°C° 0 mm 3 mps 750 mmHg 74%
07:00 +8°C° 0 mm 4 mps 750 mmHg 73%
08:00 +8°C° 0 mm 4 mps 750 mmHg 71%
09:00 +11°C° 0 mm 4 mps 750 mmHg 66%
10:00 +12°C° 0 mm 5 mps 751 mmHg 60%
11:00 +14°C° 0 mm 5 mps 751 mmHg 54%
12:00 +15°C° 0 mm 6 mps 751 mmHg 51%
13:00 +15°C° 0 mm 6 mps 751 mmHg 47%
14:00 +16°C° 0 mm 7 mps 751 mmHg 43%
15:00 +16°C° 0 mm 6 mps 751 mmHg 45%
16:00 +16°C° 0 mm 6 mps 751 mmHg 46%
17:00 +15°C° 0 mm 6 mps 750 mmHg 48%
18:00 +14°C° 0 mm 6 mps 751 mmHg 51%
19:00 +12°C° 0 mm 5 mps 751 mmHg 53%
20:00 +10°C° 0 mm 5 mps 751 mmHg 56%
21:00 +10°C° 0 mm 5 mps 751 mmHg 56%
22:00 +9°C° 0 mm 6 mps 751 mmHg 55%
23:00 +9°C° 0 mm 6 mps 751 mmHg 55%

Tomorrow, 12 April, Monday

Time Temperature Precipitation Wind Pressure Humidity
00:00 +8°C° 0 mm 6 mps 751 mmHg 56%
01:00 +8°C° 0 mm 6 mps 751 mmHg 57%
02:00 +7°C° 0 mm 6 mps 751 mmHg 58%
03:00 +7°C° 0 mm 6 mps 751 mmHg 58%
04:00 +7°C° 0 mm 6 mps 751 mmHg 58%
05:00 +5°C° 0 mm 6 mps 751 mmHg 58%
06:00 +7°C° 0 mm 6 mps 751 mmHg 58%
07:00 +7°C° 0 mm 6 mps 751 mmHg 57%
08:00 +7°C° 0 mm 6 mps 750 mmHg 57%
09:00 +9°C° 0 mm 6 mps 750 mmHg 54%
10:00 +10°C° 0 mm 7 mps 750 mmHg 51%
11:00 +11°C° 0 mm 7 mps 750 mmHg 47%
12:00 +11°C° 0 mm 6 mps 750 mmHg 49%
13:00 +13°C° 0 mm 6 mps 750 mmHg 50%
14:00 +13°C° 0 mm 6 mps 749 mmHg 51%
15:00 +13°C° 0 mm 5 mps 749 mmHg 53%
16:00 +13°C° 0 mm 5 mps 749 mmHg 54%
17:00 +13°C° 0 mm 4 mps 748 mmHg 55%
18:00 +12°C° 0.1 mm 4 mps 749 mmHg 59%
19:00 +12°C° 0.1 mm 3 mps 749 mmHg 63%
20:00 +11°C° 0.1 mm 3 mps 749 mmHg 67%
21:00 +11°C° 0.1 mm 3 mps 749 mmHg 70%
22:00 +11°C° 0.1 mm 3 mps 748 mmHg 73%
23:00 +10°C° 0.1 mm 3 mps 748 mmHg 76%

Day after tomorrow, 13 April, Tuesday

Time Temperature Precipitation Wind Pressure Humidity
00:00 +10°C° 0 mm 3 mps 748 mmHg 78%
01:00 +10°C° 0 mm 3 mps 748 mmHg 80%
02:00 +10°C° 0 mm 2 mps 748 mmHg 82%
03:00 +9°C° 0 mm 3 mps 749 mmHg 86%
04:00 +8°C° 0 mm 3 mps 749 mmHg 89%
05:00 +7°C° 0 mm 3 mps 749 mmHg 93%
06:00 +6°C° 0 mm 4 mps 749 mmHg 91%
07:00 +6°C° 0 mm 4 mps 750 mmHg 89%
08:00 +6°C° 0 mm 4 mps 750 mmHg 86%
09:00 +6°C° 0 mm 4 mps 750 mmHg 84%
10:00 +6°C° 0 mm 4 mps 750 mmHg 82%
11:00 +7°C° 0 mm 4 mps 750 mmHg 80%
12:00 +6°C° 0 mm 5 mps 750 mmHg 79%
13:00 +6°C° 0 mm 5 mps 751 mmHg 79%
14:00 +6°C° 0 mm 5 mps 751 mmHg 78%
15:00 +6°C° 0.1 mm 5 mps 750 mmHg 80%
16:00 +5°C° 0.1 mm 5 mps 750 mmHg 81%
17:00 +5°C° 0.1 mm 5 mps 750 mmHg 82%
18:00 +5°C° 0.3 mm 5 mps 750 mmHg 83%
19:00 +3°C° 0.3 mm 5 mps 750 mmHg 84%
20:00 +3°C° 0.3 mm 6 mps 750 mmHg 85%
21:00 +3°C° 0.2 mm 6 mps 750 mmHg 85%
22:00 +2°C° 0.2 mm 6 mps 750 mmHg 85%
23:00 +2°C° 0.2 mm 6 mps 750 mmHg 85%

14 April, Wednesday

Time Temperature Precipitation Wind Pressure Humidity
00:00 +2°C° 0 mm 6 mps 749 mmHg 86%
01:00 +2°C° 0 mm 6 mps 749 mmHg 87%
02:00 +2°C° 0 mm 7 mps 749 mmHg 88%
03:00 0°C° 0 mm 7 mps 748 mmHg 90%
04:00 0°C° 0 mm 7 mps 748 mmHg 92%
05:00 0°C° 0 mm 7 mps 748 mmHg 93%
06:00 0°C° 0.1 mm 7 mps 748 mmHg 93%
07:00 0°C° 0.1 mm 7 mps 748 mmHg 93%
08:00 0°C° 0.1 mm 7 mps 748 mmHg 93%
09:00 0°C° 0.6 mm 7 mps 748 mmHg 93%
10:00 0°C° 0.6 mm 7 mps 747 mmHg 94%
11:00 0°C° 0.6 mm 7 mps 747 mmHg 94%
12:00 -1°C° 1 mm 7 mps 747 mmHg 94%
13:00 -1°C° 1 mm 7 mps 747 mmHg 95%
14:00 -1°C° 1 mm 7 mps 747 mmHg 95%
15:00 -1°C° 0.8 mm 7 mps 747 mmHg 95%
16:00 -1°C° 0.8 mm 7 mps 747 mmHg 95%
17:00 -1°C° 0.8 mm 7 mps 747 mmHg 96%
18:00 -1°C° 0.2 mm 7 mps 747 mmHg 96%
19:00 -1°C° 0.2 mm 7 mps 747 mmHg 96%
20:00 -1°C° 0.2 mm 6 mps 747 mmHg 96%
21:00 -1°C° 0.1 mm 6 mps 747 mmHg 96%
22:00 -1°C° 0.1 mm 6 mps 747 mmHg 96%
23:00 -1°C° 0.1 mm 6 mps 747 mmHg 96%

15 April, Thursday

Time Temperature Precipitation Wind Pressure Humidity
00:00 -1°C° 0 mm 6 mps 747 mmHg 96%
01:00 +1°C° 0 mm 5 mps 747 mmHg 97%
02:00 +1°C° 0 mm 5 mps 747 mmHg 97%
03:00 +1°C° 0 mm 5 mps 747 mmHg 97%
04:00 +1°C° 0 mm 5 mps 747 mmHg 97%
05:00 +1°C° 0 mm 5 mps 747 mmHg 97%
06:00 +1°C° 0 mm 5 mps 747 mmHg 96%
07:00 +2°C° 0 mm 5 mps 747 mmHg 96%
08:00 +2°C° 0 mm 5 mps 748 mmHg 95%
09:00 +2°C° 0 mm 5 mps 748 mmHg 94%
10:00 +3°C° 0 mm 6 mps 748 mmHg 92%
11:00 +3°C° 0 mm 6 mps 748 mmHg 91%
12:00 +3°C° 0 mm 6 mps 748 mmHg 90%
13:00 +3°C° 0 mm 6 mps 748 mmHg 89%
14:00 +4°C° 0 mm 6 mps 749 mmHg 87%
15:00 +3°C° 0.1 mm 6 mps 749 mmHg 88%
16:00 +3°C° 0.1 mm 6 mps 749 mmHg 89%
17:00 +3°C° 0.1 mm 7 mps 749 mmHg 90%
18:00 +2°C° 0.1 mm 7 mps 749 mmHg 89%
19:00 +2°C° 0.1 mm 7 mps 749 mmHg 89%
20:00 +2°C° 0.1 mm 7 mps 750 mmHg 88%
21:00 +2°C° 0.1 mm 6 mps 750 mmHg 88%
22:00 +2°C° 0.1 mm 6 mps 750 mmHg 89%
23:00 +1°C° 0.1 mm 6 mps 750 mmHg 90%

16 April, Friday

Time Temperature Precipitation Wind Pressure Humidity
00:00 +1°C° 0.1 mm 6 mps 750 mmHg 90%
01:00 +1°C° 0.1 mm 6 mps 750 mmHg 91%
02:00 +1°C° 0.1 mm 6 mps 750 mmHg 92%
03:00 +1°C° 0 mm 6 mps 750 mmHg 92%
04:00 +1°C° 0 mm 6 mps 750 mmHg 92%
05:00 +1°C° 0 mm 6 mps 750 mmHg 92%
06:00 +2°C° 0.2 mm 6 mps 750 mmHg 91%
07:00 +2°C° 0.2 mm 6 mps 751 mmHg 91%
08:00 +2°C° 0.2 mm 6 mps 751 mmHg 90%
09:00 +2°C° 0 mm 6 mps 751 mmHg 88%
10:00 +2°C° 0 mm 6 mps 752 mmHg 86%
11:00 +3°C° 0 mm 6 mps 752 mmHg 84%
12:00 +3°C° 0 mm 6 mps 752 mmHg 81%
13:00 +3°C° 0 mm 6 mps 753 mmHg 79%
14:00 +3°C° 0 mm 5 mps 753 mmHg 76%
15:00 +5°C° 0.1 mm 5 mps 753 mmHg 76%
16:00 +5°C° 0.1 mm 5 mps 754 mmHg 76%
17:00 +6°C° 0.1 mm 5 mps 754 mmHg 76%
18:00 +6°C° 0.3 mm 5 mps 754 mmHg 74%
19:00 +6°C° 0.3 mm 5 mps 754 mmHg 72%
20:00 +5°C° 0.3 mm 5 mps 755 mmHg 70%
21:00 +5°C° 0 mm 5 mps 755 mmHg 70%
22:00 +5°C° 0 mm 5 mps 756 mmHg 70%
23:00 +3°C° 0 mm 5 mps 756 mmHg 69%
Show more